| time (UTC) | temp F | wind direction | speed MPH | gust MPH | rain 1hr in | rain 24hr in | rain mn in | humidity % | barometer mb |
| 20260906094004 | 73 | 9 | 2.0 | 3.0 | 0.01 | 0.02 | 0.02 | 92 | 1012.7 |
| 20260906093503 | 73 | 9 | 2.0 | 3.0 | 0.01 | 0.02 | 0.02 | 92 | 1012.7 |
| 20260906093012 | 73 | 9 | 2.0 | 3.0 | 0.01 | 0.02 | 0.02 | 92 | 1012.8 |
| 20260906092506 | 73 | 9 | 2.0 | 2.0 | 0.01 | 0.02 | 0.02 | 92 | 1012.8 |
| 20260906092003 | 73 | 9 | 1.0 | 2.0 | 0.01 | 0.02 | 0.02 | 92 | 1012.8 |
| 20260906091524 | 73 | 9 | 0.0 | 2.0 | 0.01 | 0.02 | 0.02 | 92 | 1012.9 |
| 20260906091004 | 73 | 9 | 1.0 | 2.0 | 0.00 | 0.01 | 0.01 | 92 | 1012.8 |
| 20260906090509 | 73 | 9 | 0.0 | 2.0 | 0.00 | 0.01 | 0.01 | 91 | 1012.9 |
| 20260906090005 | 73 | 9 | 0.0 | 2.0 | 0.00 | 0.01 | 0.01 | 92 | 1013.0 |
| 20260906085504 | 73 | 9 | 0.0 | 2.0 | 0.00 | 0.01 | 0.01 | 92 | 1013.0 |
| 20260906085005 | 73 | 9 | 1.0 | 3.0 | 0.00 | 0.01 | 0.01 | 92 | 1013.1 |
| 20260906084516 | 73 | 9 | 1.0 | 3.0 | 0.00 | 0.01 | 0.01 | 92 | 1013.0 |
| 20260906084004 | 73 | 9 | 1.0 | 3.0 | 0.00 | 0.01 | 0.01 | 92 | 1012.9 |
| 20260906083507 | 73 | 329 | 0.0 | 0.0 | 0.00 | 0.01 | 0.01 | 92 | 1012.8 |
| 20260906083014 | 73 | 329 | 0.0 | 0.0 | 0.00 | 0.01 | 0.01 | 92 | 1013.0 |
| 20260906082509 | 73 | 329 | 0.0 | 0.0 | 0.00 | 0.01 | 0.01 | 92 | 1012.9 |
| 20260906082008 | 73 | 329 | 0.0 | 0.0 | 0.00 | 0.01 | 0.01 | 92 | 1012.9 |
| 20260906081515 | 73 | 284 | 0.0 | 0.0 | 0.00 | 0.01 | 0.01 | 92 | 1012.8 |
| 20260906081009 | 73 | 233 | 0.0 | 2.0 | 0.00 | 0.01 | 0.01 | 92 | 1012.8 |
| 20260906080506 | 73 | 233 | 0.0 | 2.0 | 0.00 | 0.01 | 0.01 | 92 | 1012.7 |
| 20260906080006 | 74 | 233 | 1.0 | 2.0 | 0.00 | 0.01 | 0.01 | 92 | 1012.7 |
| 20260906075508 | 74 | 348 | 0.0 | 0.0 | 0.00 | 0.01 | 0.01 | 91 | 1012.8 |
| 20260906075004 | 74 | 348 | 0.0 | 2.0 | 0.00 | 0.01 | 0.01 | 91 | 1012.8 |
| 20260906074504 | 74 | 348 | 0.0 | 2.0 | 0.00 | 0.01 | 0.01 | 91 | 1012.8 |
| 20260906074004 | 74 | 348 | 0.0 | 2.0 | 0.00 | 0.01 | 0.01 | 91 | 1012.8 |
| 20260906073503 | 74 | 348 | 0.0 | 4.0 | 0.00 | 0.01 | 0.01 | 92 | 1012.8 |
| 20260906073008 | 74 | 348 | 2.0 | 4.0 | 0.00 | 0.01 | 0.01 | 92 | 1012.8 |
| 20260906072504 | 74 | 360 | 2.0 | 3.0 | 0.00 | 0.01 | 0.01 | 92 | 1012.8 |
| 20260906072005 | 74 | 33 | 1.0 | 2.0 | 0.00 | 0.01 | 0.01 | 91 | 1012.7 |
| 20260906071513 | 74 | 34 | 2.0 | 2.0 | 0.00 | 0.01 | 0.01 | 91 | 1012.7 |
| 20260906071006 | 74 | 213 | 0.0 | 2.0 | 0.00 | 0.01 | 0.01 | 92 | 1012.5 |
| 20260906070509 | 74 | 121 | 0.0 | 2.0 | 0.00 | 0.01 | 0.01 | 91 | 1012.5 |
| 20260906070014 | 74 | 113 | 2.0 | 2.0 | 0.01 | 0.01 | 0.01 | 90 | 1012.5 |
| 20260906065503 | 75 | 134 | 0.0 | 2.0 | 0.01 | 0.01 | 0.01 | 90 | 1012.4 |
| 20260906065015 | 75 | 133 | 0.0 | 2.0 | 0.01 | 0.01 | 0.01 | 91 | 1012.4 |
| 20260906064510 | 75 | 133 | 0.0 | 2.0 | 0.01 | 0.01 | 0.01 | 91 | 1012.4 |
| 20260906064012 | 75 | 135 | 0.0 | 2.0 | 0.01 | 0.01 | 0.01 | 91 | 1012.4 |
| 20260906063504 | 75 | 15 | 0.0 | 5.0 | 0.01 | 0.01 | 0.01 | 91 | 1012.4 |
| 20260906063009 | 75 | 360 | 2.0 | 5.0 | 0.01 | 0.01 | 0.01 | 91 | 1012.4 |
| 20260906062504 | 75 | 11 | 3.0 | 5.0 | 0.01 | 0.01 | 0.01 | 91 | 1012.6 |
| 20260906062005 | 75 | 306 | 3.0 | 5.0 | 0.01 | 0.01 | 0.01 | 91 | 1012.7 |
| 20260906061508 | 75 | 263 | 3.0 | 5.0 | 0.01 | 0.01 | 0.01 | 91 | 1012.7 |
| 20260906061008 | 75 | 278 | 3.0 | 5.0 | 0.01 | 0.01 | 0.01 | 91 | 1013.0 |
| 20260906060508 | 75 | 225 | 3.0 | 5.0 | 0.01 | 0.01 | 0.01 | 91 | 1013.2 |
| 20260906060022 | 75 | 67 | 0.0 | 4.0 | 0.00 | 0.00 | 0.00 | 92 | 1013.5 |
| 20260906055512 | 74 | 67 | 2.0 | 4.0 | 0.00 | 0.00 | 0.00 | 92 | 1013.6 |
| 20260906055005 | 74 | 128 | 3.0 | 4.0 | 0.00 | 0.00 | 0.00 | 92 | 1013.7 |
| 20260906054527 | 74 | 90 | 1.0 | 3.0 | 0.00 | 0.00 | 0.00 | 91 | 1013.5 |
| 20260906054010 | 74 | 25 | 0.0 | 0.0 | 0.00 | 0.00 | 0.00 | 91 | 1013.4 |
| 20260906053504 | 74 | 25 | 0.0 | 0.0 | 0.00 | 0.00 | 0.00 | 91 | 1013.3 |
| 20260906053030 | 74 | 24 | 0.0 | 0.0 | 0.00 | 0.00 | 0.00 | 91 | 1013.3 |
| 20260906052508 | 74 | 307 | 0.0 | 0.0 | 0.00 | 0.00 | 0.00 | 91 | 1013.4 |
| 20260906052005 | 74 | 284 | 0.0 | 0.0 | 0.00 | 0.00 | 0.00 | 91 | 1013.5 |
| 20260906051510 | 74 | 284 | 0.0 | 0.0 | 0.00 | 0.00 | 0.00 | 90 | 1013.6 |
| 20260906051005 | 74 | 284 | 0.0 | 0.0 | 0.00 | 0.00 | 0.00 | 90 | 1013.4 |
| 20260906050506 | 74 | 284 | 0.0 | 0.0 | 0.00 | 0.00 | 0.00 | 91 | 1013.4 |
| 20260906050043 | 74 | 276 | 0.0 | 0.0 | 0.00 | 0.00 | 0.00 | 90 | 1013.3 |
| 20260906045504 | 74 | 203 | 0.0 | 0.0 | 0.00 | 0.00 | 0.00 | 90 | 1013.3 |
| 20260906045010 | 74 | 203 | 0.0 | 0.0 | 0.00 | 0.00 | 0.00 | 90 | 1013.3 |
| 20260906044514 | 74 | 203 | 0.0 | 0.0 | 0.00 | 0.00 | 0.00 | 90 | 1013.4 |
| 20260906044012 | 74 | 158 | 0.0 | 0.0 | 0.00 | 0.00 | 0.00 | 90 | 1013.4 |
| 20260906043512 | 74 | 158 | 0.0 | 0.0 | 0.00 | 0.00 | 0.00 | 90 | 1013.6 |
| 20260906043012 | 74 | 158 | 0.0 | 0.0 | 0.00 | 0.00 | 0.00 | 90 | 1013.6 |
| 20260906042515 | 74 | 294 | 0.0 | 0.0 | 0.00 | 0.00 | 0.00 | 89 | 1013.6 |
| 20260906042010 | 75 | 321 | 0.0 | 0.0 | 0.00 | 0.00 | 0.00 | 90 | 1013.5 |
| 20260906041510 | 75 | 320 | 0.0 | 0.0 | 0.00 | 0.00 | 0.00 | 89 | 1013.5 |
| 20260906041017 | 75 | 320 | 0.0 | 0.0 | 0.00 | 0.00 | 0.00 | 90 | 1013.5 |
| 20260906040503 | 75 | 322 | 0.0 | 0.0 | 0.00 | 0.00 | 0.00 | 90 | 1013.7 |
| 20260906040015 | 75 | 295 | 0.0 | 0.0 | 0.00 | 0.00 | 0.00 | 89 | 1013.7 |
| 20260906035508 | 75 | 294 | 0.0 | 0.0 | 0.00 | 0.00 | 0.00 | 89 | 1013.4 |
| 20260906035009 | 75 | 286 | 0.0 | 0.0 | 0.00 | 0.00 | 0.00 | 89 | 1013.5 |
| 20260906034515 | 75 | 270 | 0.0 | 0.0 | 0.00 | 0.00 | 0.00 | 90 | 1013.4 |
| 20260906034010 | 75 | 15 | 0.0 | 0.0 | 0.00 | 0.00 | 0.00 | 90 | 1013.5 |
| 20260906033506 | 75 | 15 | 0.0 | 0.0 | 0.00 | 0.00 | 0.00 | 90 | 1013.6 |
| 20260906033027 | 75 | 15 | 0.0 | 0.0 | 0.00 | 0.00 | 0.00 | 89 | 1013.6 |
| 20260906032507 | 75 | 63 | 0.0 | 0.0 | 0.00 | 0.00 | 0.00 | 89 | 1013.5 |
| 20260906032014 | 75 | 56 | 0.0 | 1.0 | 0.00 | 0.00 | 0.00 | 89 | 1013.5 |
| 20260906031527 | 75 | 49 | 0.0 | 2.0 | 0.00 | 0.00 | 0.00 | 88 | 1013.5 |
| 20260906031002 | 75 | 24 | 1.0 | 2.0 | 0.00 | 0.00 | 0.00 | 88 | 1013.6 |
| 20260906030507 | 75 | 17 | 0.0 | 2.0 | 0.00 | 0.00 | 0.00 | 89 | 1013.5 |
| 20260906030002 | 75 | 16 | 0.0 | 2.0 | 0.00 | 0.00 | 0.00 | 89 | 1013.5 |
| 20260906025502 | 75 | 15 | 2.0 | 2.0 | 0.00 | 0.00 | 0.00 | 89 | 1013.5 |
| 20260906025003 | 75 | 15 | 0.0 | 2.0 | 0.00 | 0.00 | 0.00 | 88 | 1013.6 |
| 20260906024507 | 75 | 15 | 0.0 | 1.0 | 0.00 | 0.00 | 0.00 | 88 | 1013.7 |
| 20260906024003 | 75 | 15 | 0.0 | 2.0 | 0.00 | 0.00 | 0.00 | 88 | 1013.6 |
| 20260906023503 | 76 | 43 | 0.0 | 3.0 | 0.00 | 0.00 | 0.00 | 88 | 1013.5 |
| 20260906023002 | 76 | 17 | 1.0 | 3.0 | 0.00 | 0.00 | 0.00 | 88 | 1013.3 |
| 20260906022503 | 76 | 15 | 2.0 | 2.0 | 0.00 | 0.00 | 0.00 | 88 | 1013.2 |
| 20260906022005 | 76 | 360 | 1.0 | 2.0 | 0.00 | 0.00 | 0.00 | 88 | 1013.2 |
| 20260906021502 | 76 | 360 | 1.0 | 2.0 | 0.00 | 0.00 | 0.00 | 88 | 1013.2 |
| 20260906021003 | 76 | 244 | 0.0 | 0.0 | 0.00 | 0.00 | 0.00 | 87 | 1013.2 |
| 20260906020506 | 76 | 244 | 0.0 | 0.0 | 0.00 | 0.00 | 0.00 | 87 | 1013.2 |
| 20260906020005 | 76 | 244 | 0.0 | 0.0 | 0.00 | 0.00 | 0.00 | 87 | 1013.1 |
| 20260906015504 | 76 | 244 | 0.0 | 0.0 | 0.00 | 0.00 | 0.00 | 87 | 1012.8 |
| 20260906015003 | 76 | 244 | 0.0 | 0.0 | 0.00 | 0.00 | 0.00 | 86 | 1012.9 |
| 20260906014508 | 76 | 244 | 0.0 | 0.0 | 0.00 | 0.00 | 0.00 | 85 | 1012.7 |
| 20260906014003 | 77 | 244 | 0.0 | 0.0 | 0.00 | 0.00 | 0.00 | 85 | 1012.6 |
| 20260906013502 | 77 | 244 | 0.0 | 0.0 | 0.00 | 0.00 | 0.00 | 85 | 1012.6 |
| 20260906013008 | 77 | 244 | 0.0 | 0.0 | 0.00 | 0.00 | 0.00 | 84 | 1012.5 |
| 20260906012503 | 77 | 244 | 0.0 | 0.0 | 0.00 | 0.00 | 0.00 | 84 | 1012.5 |
| 20260906012005 | 78 | 244 | 0.0 | 0.0 | 0.00 | 0.00 | 0.00 | 83 | 1012.5 |
| 20260906011503 | 78 | 244 | 0.0 | 0.0 | 0.00 | 0.00 | 0.00 | 83 | 1012.2 |
| 20260906011002 | 78 | 244 | 0.0 | 2.0 | 0.00 | 0.00 | 0.00 | 82 | 1012.2 |
| 20260906010507 | 78 | 244 | 0.0 | 2.0 | 0.00 | 0.00 | 0.00 | 82 | 1012.1 |
| 20260906010003 | 79 | 244 | 0.0 | 2.0 | 0.00 | 0.00 | 0.00 | 81 | 1012.1 |
| 20260906005501 | 79 | 244 | 0.0 | 2.0 | 0.00 | 0.00 | 0.00 | 80 | 1012.1 |
| 20260906005003 | 80 | 244 | 0.0 | 3.0 | 0.00 | 0.00 | 0.00 | 79 | 1012.1 |
| 20260906004504 | 80 | 244 | 1.0 | 3.0 | 0.00 | 0.00 | 0.00 | 79 | 1011.9 |
| 20260906004005 | 81 | 266 | 1.0 | 3.0 | 0.00 | 0.00 | 0.00 | 78 | 1011.8 |
| 20260906003505 | 81 | 275 | 2.0 | 3.0 | 0.00 | 0.00 | 0.00 | 77 | 1011.9 |
| 20260906003005 | 81 | 284 | 0.0 | 3.0 | 0.00 | 0.00 | 0.00 | 77 | 1011.9 |
| 20260906002501 | 81 | 284 | 1.0 | 3.0 | 0.00 | 0.00 | 0.00 | 77 | 1012.1 |
| 20260906002003 | 82 | 319 | 1.0 | 4.0 | 0.00 | 0.00 | 0.00 | 76 | 1012.1 |
| 20260906001503 | 82 | 286 | 2.0 | 8.0 | 0.00 | 0.00 | 0.00 | 76 | 1012.1 |
| 20260906001004 | 82 | 279 | 2.0 | 8.0 | 0.00 | 0.00 | 0.00 | 76 | 1012.1 |
| 20260906000503 | 82 | 198 | 3.0 | 7.0 | 0.00 | 0.00 | 0.00 | 75 | 1012.0 |
| 20260906000007 | 82 | 287 | 3.0 | 7.0 | 0.00 | 0.00 | 0.00 | 75 | 1012.1 |
| 20260905235504 | 83 | 256 | 3.0 | 4.0 | 0.00 | 0.00 | 0.00 | 75 | 1012.0 |
| 20260905235002 | 83 | 244 | 1.0 | 4.0 | 0.00 | 0.00 | 0.00 | 74 | 1012.2 |
| 20260905234507 | 83 | 281 | 2.0 | 8.0 | 0.00 | 0.00 | 0.00 | 73 | 1012.2 |
| 20260905234007 | 83 | 281 | 3.0 | 8.0 | 0.00 | 0.00 | 0.00 | 73 | 1012.4 |
| 20260905233502 | 83 | 260 | 4.0 | 8.0 | 0.00 | 0.00 | 0.00 | 73 | 1012.4 |
| 20260905233021 | 84 | 271 | 5.0 | 9.0 | 0.00 | 0.00 | 0.00 | 73 | 1012.4 |
| 20260905232505 | 84 | 258 | 5.0 | 9.0 | 0.00 | 0.00 | 0.00 | 73 | 1012.3 |
| 20260905232008 | 84 | 239 | 4.0 | 7.0 | 0.00 | 0.00 | 0.00 | 73 | 1012.3 |
| 20260905231503 | 84 | 233 | 3.0 | 10.0 | 0.00 | 0.00 | 0.00 | 73 | 1012.3 |
| 20260905231004 | 84 | 235 | 3.0 | 10.0 | 0.00 | 0.00 | 0.00 | 74 | 1012.3 |
| 20260905230502 | 84 | 238 | 6.0 | 10.0 | 0.00 | 0.00 | 0.00 | 74 | 1012.3 |
| 20260905230004 | 85 | 257 | 4.0 | 11.0 | 0.00 | 0.00 | 0.00 | 73 | 1012.3 |
| 20260905225504 | 85 | 242 | 6.0 | 11.0 | 0.00 | 0.00 | 0.00 | 72 | 1012.1 |
| 20260905225003 | 86 | 257 | 4.0 | 9.0 | 0.00 | 0.00 | 0.00 | 71 | 1012.2 |
| 20260905224504 | 87 | 279 | 5.0 | 12.0 | 0.00 | 0.00 | 0.00 | 70 | 1012.2 |
| 20260905224005 | 87 | 232 | 6.0 | 12.0 | 0.00 | 0.00 | 0.00 | 69 | 1012.3 |
| 20260905223503 | 88 | 273 | 7.0 | 10.0 | 0.00 | 0.00 | 0.00 | 68 | 1012.1 |
| 20260905223004 | 88 | 226 | 2.0 | 12.0 | 0.00 | 0.00 | 0.00 | 69 | 1012.1 |
| 20260905222506 | 87 | 269 | 6.0 | 12.0 | 0.00 | 0.00 | 0.00 | 69 | 1012.1 |
| 20260905222009 | 87 | 235 | 5.0 | 12.0 | 0.00 | 0.00 | 0.00 | 69 | 1012.2 |
| 20260905221516 | 87 | 223 | 6.0 | 12.0 | 0.00 | 0.00 | 0.00 | 67 | 1012.3 |
| 20260905221003 | 88 | 227 | 3.0 | 13.0 | 0.00 | 0.00 | 0.00 | 68 | 1012.3 |
| 20260905220504 | 88 | 192 | 4.0 | 13.0 | 0.00 | 0.00 | 0.00 | 68 | 1012.2 |
| 20260905220003 | 88 | 273 | 7.0 | 11.0 | 0.00 | 0.00 | 0.00 | 68 | 1012.0 |
| 20260905215503 | 88 | 227 | 5.0 | 10.0 | 0.00 | 0.00 | 0.00 | 67 | 1012.0 |
| 20260905215003 | 88 | 280 | 6.0 | 12.0 | 0.00 | 0.00 | 0.00 | 67 | 1012.1 |
| 20260905214503 | 88 | 275 | 6.0 | 12.0 | 0.00 | 0.00 | 0.00 | 67 | 1012.0 |
| 20260905214006 | 89 | 229 | 7.0 | 12.0 | 0.00 | 0.00 | 0.00 | 65 | 1012.1 |
| 20260905213504 | 90 | 202 | 6.0 | 10.0 | 0.00 | 0.00 | 0.00 | 64 | 1012.1 |
| 20260905213004 | 89 | 254 | 5.0 | 11.0 | 0.00 | 0.00 | 0.00 | 64 | 1012.2 |
| 20260905212504 | 89 | 286 | 5.0 | 11.0 | 0.00 | 0.00 | 0.00 | 65 | 1012.2 |
| 20260905212003 | 89 | 218 | 7.0 | 12.0 | 0.00 | 0.00 | 0.00 | 65 | 1012.3 |
| 20260905211508 | 89 | 265 | 5.0 | 10.0 | 0.00 | 0.00 | 0.00 | 65 | 1012.3 |
| 20260905211003 | 88 | 236 | 4.0 | 9.0 | 0.00 | 0.00 | 0.00 | 66 | 1012.3 |
| 20260905210510 | 88 | 269 | 4.0 | 8.0 | 0.00 | 0.00 | 0.00 | 66 | 1012.4 |
| 20260905210007 | 88 | 259 | 4.0 | 10.0 | 0.00 | 0.00 | 0.00 | 67 | 1012.4 |
| 20260905205511 | 88 | 265 | 5.0 | 10.0 | 0.00 | 0.00 | 0.00 | 66 | 1012.5 |
| 20260905205005 | 88 | 268 | 4.0 | 11.0 | 0.00 | 0.00 | 0.00 | 65 | 1012.5 |
| 20260905204510 | 89 | 250 | 5.0 | 11.0 | 0.00 | 0.00 | 0.00 | 66 | 1012.7 |
| 20260905204003 | 89 | 271 | 5.0 | 9.0 | 0.00 | 0.00 | 0.00 | 64 | 1012.7 |
| 20260905203504 | 89 | 336 | 3.0 | 10.0 | 0.00 | 0.00 | 0.00 | 66 | 1012.7 |
| 20260905203005 | 90 | 251 | 6.0 | 15.0 | 0.00 | 0.00 | 0.00 | 64 | 1012.8 |
| 20260905202503 | 90 | 200 | 4.0 | 15.0 | 0.00 | 0.00 | 0.00 | 65 | 1012.7 |
| 20260905202009 | 90 | 194 | 7.0 | 15.0 | 0.00 | 0.00 | 0.00 | 64 | 1012.9 |
| 20260905201509 | 90 | 267 | 5.0 | 12.0 | 0.00 | 0.00 | 0.00 | 64 | 1012.9 |
| 20260905201008 | 90 | 306 | 4.0 | 12.0 | 0.00 | 0.00 | 0.00 | 66 | 1012.9 |
| 20260905200507 | 89 | 237 | 6.0 | 11.0 | 0.00 | 0.00 | 0.00 | 65 | 1012.9 |
| 20260905200021 | 89 | 244 | 8.0 | 14.0 | 0.00 | 0.00 | 0.00 | 65 | 1013.0 |
| 20260905195508 | 89 | 234 | 8.0 | 14.0 | 0.00 | 0.00 | 0.00 | 65 | 1013.0 |
| 20260905195005 | 90 | 245 | 6.0 | 12.0 | 0.00 | 0.00 | 0.00 | 65 | 1012.9 |
| 20260905194516 | 89 | 248 | 5.0 | 13.0 | 0.00 | 0.00 | 0.00 | 64 | 1013.0 |
| 20260905194005 | 90 | 229 | 7.0 | 13.0 | 0.00 | 0.00 | 0.00 | 63 | 1013.1 |
| 20260905193511 | 90 | 203 | 5.0 | 10.0 | 0.00 | 0.00 | 0.00 | 64 | 1013.1 |
| 20260905193025 | 90 | 204 | 5.0 | 11.0 | 0.00 | 0.00 | 0.00 | 65 | 1013.1 |
| 20260905192508 | 90 | 256 | 6.0 | 11.0 | 0.00 | 0.00 | 0.00 | 65 | 1013.1 |
| 20260905192005 | 90 | 252 | 4.0 | 9.0 | 0.00 | 0.00 | 0.00 | 65 | 1013.1 |
| 20260905191510 | 90 | 265 | 5.0 | 9.0 | 0.00 | 0.00 | 0.00 | 63 | 1013.1 |
| 20260905191004 | 90 | 219 | 3.0 | 10.0 | 0.00 | 0.00 | 0.00 | 63 | 1013.2 |
| 20260905190507 | 90 | 198 | 5.0 | 9.0 | 0.00 | 0.00 | 0.00 | 64 | 1013.3 |
| 20260905190014 | 90 | 344 | 4.0 | 10.0 | 0.00 | 0.00 | 0.00 | 65 | 1013.4 |
| 20260905185507 | 89 | 161 | 5.0 | 12.0 | 0.00 | 0.00 | 0.00 | 64 | 1013.6 |
| 20260905185010 | 89 | 242 | 4.0 | 12.0 | 0.00 | 0.00 | 0.00 | 66 | 1013.7 |
| 20260905184517 | 89 | 244 | 7.0 | 11.0 | 0.00 | 0.00 | 0.00 | 64 | 1013.7 |
| 20260905184012 | 89 | 179 | 4.0 | 10.0 | 0.00 | 0.00 | 0.00 | 66 | 1013.7 |
| 20260905183508 | 89 | 242 | 6.0 | 12.0 | 0.00 | 0.00 | 0.00 | 65 | 1013.7 |
| 20260905183029 | 88 | 232 | 4.0 | 12.0 | 0.00 | 0.00 | 0.00 | 66 | 1013.9 |
| 20260905182509 | 88 | 230 | 6.0 | 10.0 | 0.00 | 0.00 | 0.00 | 67 | 1014.0 |
| 20260905182006 | 87 | 266 | 3.0 | 12.0 | 0.00 | 0.00 | 0.00 | 69 | 1014.1 |
| 20260905181526 | 87 | 295 | 7.0 | 12.0 | 0.00 | 0.00 | 0.00 | 69 | 1014.3 |
| 20260905181005 | 87 | 220 | 6.0 | 13.0 | 0.00 | 0.00 | 0.00 | 69 | 1014.4 |
| 20260905180505 | 86 | 222 | 9.0 | 13.0 | 0.00 | 0.00 | 0.00 | 70 | 1014.6 |
| 20260905180009 | 87 | 222 | 9.0 | 13.0 | 0.00 | 0.00 | 0.00 | 70 | 1014.6 |
| 20260905175505 | 86 | 297 | 5.0 | 17.0 | 0.00 | 0.00 | 0.00 | 71 | 1014.7 |
| 20260905175009 | 85 | 306 | 8.0 | 17.0 | 0.00 | 0.00 | 0.00 | 72 | 1014.6 |
| 20260905174528 | 84 | 320 | 6.0 | 13.0 | 0.00 | 0.00 | 0.00 | 74 | 1014.7 |
| 20260905174009 | 83 | 171 | 9.0 | 13.0 | 0.00 | 0.00 | 0.00 | 74 | 1014.8 |
| 20260905173513 | 83 | 244 | 6.0 | 13.0 | 0.00 | 0.00 | 0.00 | 74 | 1014.9 |
| 20260905173017 | 83 | 215 | 4.0 | 11.0 | 0.00 | 0.00 | 0.00 | 75 | 1014.8 |
| 20260905172506 | 83 | 229 | 7.0 | 13.0 | 0.00 | 0.00 | 0.00 | 75 | 1014.9 |
| 20260905172015 | 83 | 279 | 7.0 | 16.0 | 0.00 | 0.00 | 0.00 | 74 | 1015.0 |
| 20260905171514 | 83 | 232 | 8.0 | 16.0 | 0.00 | 0.00 | 0.00 | 73 | 1015.0 |
| 20260905171017 | 84 | 210 | 10.0 | 16.0 | 0.00 | 0.00 | 0.00 | 72 | 1015.0 |
| 20260905170510 | 85 | 196 | 5.0 | 15.0 | 0.00 | 0.00 | 0.00 | 71 | 1015.0 |
| 20260905170012 | 86 | 213 | 9.0 | 18.0 | 0.00 | 0.00 | 0.00 | 71 | 1015.2 |
| 20260905165506 | 86 | 265 | 12.0 | 18.0 | 0.00 | 0.00 | 0.00 | 71 | 1015.2 |
| 20260905165004 | 86 | 267 | 5.0 | 14.0 | 0.00 | 0.00 | 0.00 | 74 | 1015.1 |
| 20260905164513 | 86 | 248 | 9.0 | 14.0 | 0.00 | 0.00 | 0.00 | 71 | 1015.1 |
| 20260905164008 | 86 | 211 | 9.0 | 14.0 | 0.00 | 0.00 | 0.00 | 70 | 1015.1 |
| 20260905163507 | 87 | 229 | 7.0 | 15.0 | 0.00 | 0.00 | 0.00 | 70 | 1015.1 |
| 20260905163018 | 87 | 218 | 10.0 | 15.0 | 0.00 | 0.00 | 0.00 | 68 | 1015.3 |
| 20260905162513 | 88 | 238 | 8.0 | 12.0 | 0.00 | 0.00 | 0.00 | 69 | 1015.3 |
| 20260905162009 | 88 | 187 | 6.0 | 12.0 | 0.00 | 0.00 | 0.00 | 70 | 1015.2 |
| 20260905161527 | 87 | 227 | 6.0 | 12.0 | 0.00 | 0.00 | 0.00 | 70 | 1015.5 |
| 20260905161011 | 87 | 228 | 6.0 | 10.0 | 0.00 | 0.00 | 0.00 | 68 | 1015.4 |
| 20260905160506 | 87 | 269 | 6.0 | 9.0 | 0.00 | 0.00 | 0.00 | 69 | 1015.5 |
| 20260905160043 | 87 | 243 | 4.0 | 9.0 | 0.00 | 0.00 | 0.00 | 69 | 1015.5 |
| 20260905155509 | 87 | 235 | 3.0 | 4.0 | 0.00 | 0.00 | 0.00 | 66 | 1015.4 |
| 20260905155016 | 87 | 290 | 3.0 | 4.0 | 0.00 | 0.00 | 0.00 | 67 | 1015.3 |
| 20260905154526 | 87 | 162 | 0.0 | 3.0 | 0.00 | 0.00 | 0.00 | 67 | 1015.4 |
| 20260905154009 | 86 | 282 | 2.0 | 4.0 | 0.00 | 0.00 | 0.00 | 68 | 1015.2 |
| 20260905153506 | 86 | 190 | 2.0 | 4.0 | 0.00 | 0.00 | 0.00 | 69 | 1015.2 |
| 20260905153015 | 86 | 289 | 1.0 | 6.0 | 0.00 | 0.00 | 0.00 | 69 | 1015.1 |
| 20260905152508 | 86 | 284 | 3.0 | 6.0 | 0.00 | 0.00 | 0.00 | 70 | 1015.0 |
| 20260905152012 | 86 | 200 | 1.0 | 6.0 | 0.00 | 0.00 | 0.00 | 70 | 1015.0 |
| 20260905151521 | 86 | 285 | 3.0 | 6.0 | 0.00 | 0.00 | 0.00 | 70 | 1015.0 |
| 20260905151012 | 86 | 232 | 3.0 | 4.0 | 0.00 | 0.00 | 0.00 | 69 | 1015.0 |
| 20260905150512 | 86 | 296 | 2.0 | 3.0 | 0.00 | 0.00 | 0.00 | 71 | 1015.0 |
| 20260905150024 | 85 | 47 | 0.0 | 3.0 | 0.00 | 0.00 | 0.00 | 70 | 1015.0 |
| 20260905145516 | 85 | 47 | 1.0 | 3.0 | 0.00 | 0.00 | 0.00 | 71 | 1015.2 |
| 20260905145014 | 85 | 47 | 2.0 | 3.0 | 0.00 | 0.00 | 0.00 | 73 | 1015.2 |
| 20260905144537 | 84 | 47 | 0.0 | 4.0 | 0.00 | 0.00 | 0.00 | 73 | 1015.1 |
| 20260905144019 | 84 | 346 | 2.0 | 5.0 | 0.00 | 0.00 | 0.00 | 73 | 1015.0 |
| 20260905143511 | 84 | 38 | 2.0 | 5.0 | 0.00 | 0.00 | 0.00 | 73 | 1014.9 |
| 20260905143037 | 84 | 67 | 2.0 | 7.0 | 0.00 | 0.00 | 0.00 | 73 | 1015.0 |
| 20260905142510 | 84 | 28 | 3.0 | 7.0 | 0.00 | 0.00 | 0.00 | 72 | 1015.0 |
| 20260905142010 | 84 | 46 | 1.0 | 7.0 | 0.00 | 0.00 | 0.00 | 73 | 1014.9 |
| 20260905141528 | 84 | 336 | 3.0 | 9.0 | 0.00 | 0.00 | 0.00 | 73 | 1015.0 |
| 20260905141014 | 84 | 63 | 5.0 | 10.0 | 0.00 | 0.00 | 0.00 | 73 | 1014.9 |
| 20260905140510 | 83 | 65 | 5.0 | 9.0 | 0.00 | 0.00 | 0.00 | 74 | 1015.0 |
| 20260905140023 | 82 | 17 | 4.0 | 7.0 | 0.00 | 0.00 | 0.00 | 78 | 1015.1 |
| 20260905135512 | 82 | 40 | 3.0 | 5.0 | 0.00 | 0.00 | 0.00 | 78 | 1015.1 |
| 20260905135018 | 81 | 57 | 3.0 | 4.0 | 0.00 | 0.00 | 0.00 | 78 | 1015.1 |
| 20260905134526 | 81 | 74 | 3.0 | 5.0 | 0.00 | 0.00 | 0.00 | 78 | 1015.1 |
| 20260905134013 | 81 | 360 | 2.0 | 5.0 | 0.00 | 0.00 | 0.00 | 79 | 1015.0 |
| 20260905133517 | 81 | 28 | 3.0 | 5.0 | 0.00 | 0.00 | 0.00 | 79 | 1015.1 |
| 20260905133040 | 81 | 34 | 2.0 | 5.0 | 0.00 | 0.00 | 0.00 | 79 | 1015.1 |
| 20260905132520 | 81 | 19 | 2.0 | 5.0 | 0.00 | 0.00 | 0.00 | 79 | 1015.1 |
| 20260905132018 | 80 | 69 | 2.0 | 5.0 | 0.00 | 0.00 | 0.00 | 79 | 1015.2 |
| 20260905131536 | 80 | 28 | 2.0 | 6.0 | 0.00 | 0.00 | 0.00 | 80 | 1015.3 |
| 20260905131010 | 79 | 43 | 2.0 | 6.0 | 0.00 | 0.00 | 0.00 | 81 | 1015.4 |
| 20260905130508 | 79 | 9 | 3.0 | 5.0 | 0.00 | 0.00 | 0.00 | 81 | 1015.4 |
| 20260905130021 | 78 | 30 | 1.0 | 6.0 | 0.00 | 0.00 | 0.00 | 82 | 1015.3 |
| 20260905125513 | 78 | 9 | 4.0 | 7.0 | 0.00 | 0.00 | 0.00 | 82 | 1015.3 |
| 20260905125014 | 78 | 47 | 3.0 | 9.0 | 0.00 | 0.00 | 0.00 | 83 | 1015.3 |
| 20260905124526 | 78 | 19 | 3.0 | 9.0 | 0.00 | 0.00 | 0.00 | 83 | 1015.3 |
| 20260905124016 | 78 | 14 | 3.0 | 9.0 | 0.00 | 0.00 | 0.00 | 83 | 1015.4 |
| 20260905123515 | 77 | 319 | 4.0 | 8.0 | 0.00 | 0.00 | 0.00 | 84 | 1015.3 |
| 20260905123031 | 77 | 10 | 2.0 | 7.0 | 0.00 | 0.00 | 0.00 | 84 | 1015.2 |
| 20260905122517 | 77 | 9 | 4.0 | 7.0 | 0.00 | 0.00 | 0.00 | 84 | 1015.2 |
| 20260905122013 | 77 | 9 | 2.0 | 5.0 | 0.00 | 0.00 | 0.00 | 85 | 1015.1 |
| 20260905121533 | 76 | 27 | 2.0 | 5.0 | 0.00 | 0.00 | 0.00 | 85 | 1015.1 |
| 20260905121005 | 76 | 360 | 2.0 | 5.0 | 0.00 | 0.00 | 0.00 | 86 | 1015.1 |
| 20260905120506 | 75 | 14 | 2.0 | 5.0 | 0.00 | 0.00 | 0.00 | 87 | 1014.9 |
| 20260905120004 | 75 | 348 | 2.0 | 5.0 | 0.00 | 0.00 | 0.00 | 87 | 1015.0 |
| 20260905115503 | 75 | 58 | 2.0 | 5.0 | 0.00 | 0.00 | 0.00 | 87 | 1015.0 |
| 20260905115007 | 75 | 11 | 2.0 | 4.0 | 0.00 | 0.00 | 0.00 | 87 | 1015.0 |
| 20260905114504 | 75 | 28 | 2.0 | 5.0 | 0.00 | 0.00 | 0.00 | 87 | 1014.8 |
| 20260905114004 | 75 | 9 | 4.0 | 5.0 | 0.00 | 0.00 | 0.00 | 87 | 1014.9 |
| 20260905113504 | 75 | 9 | 3.0 | 6.0 | 0.00 | 0.00 | 0.00 | 87 | 1014.9 |
| 20260905113008 | 75 | 26 | 2.0 | 6.0 | 0.00 | 0.00 | 0.00 | 87 | 1014.8 |
| 20260905112504 | 75 | 32 | 2.0 | 6.0 | 0.00 | 0.00 | 0.00 | 87 | 1014.7 |
| 20260905112008 | 75 | 15 | 3.0 | 8.0 | 0.00 | 0.00 | 0.00 | 87 | 1014.8 |
| 20260905111503 | 75 | 11 | 2.0 | 8.0 | 0.00 | 0.00 | 0.00 | 87 | 1014.8 |
| 20260905111007 | 75 | 349 | 3.0 | 8.0 | 0.00 | 0.00 | 0.00 | 87 | 1014.6 |
| 20260905110504 | 75 | 360 | 3.0 | 7.0 | 0.00 | 0.00 | 0.00 | 88 | 1014.7 |
| 20260905110005 | 75 | 14 | 3.0 | 7.0 | 0.00 | 0.00 | 0.00 | 88 | 1014.7 |
| 20260905105509 | 75 | 331 | 3.0 | 5.0 | 0.00 | 0.00 | 0.00 | 87 | 1014.7 |
| 20260905105006 | 75 | 360 | 2.0 | 5.0 | 0.00 | 0.00 | 0.00 | 87 | 1014.7 |
| 20260905104503 | 75 | 17 | 2.0 | 5.0 | 0.00 | 0.00 | 0.00 | 87 | 1014.7 |
| 20260905104002 | 75 | 348 | 2.0 | 6.0 | 0.00 | 0.00 | 0.00 | 87 | 1014.7 |
| 20260905103502 | 75 | 34 | 2.0 | 6.0 | 0.00 | 0.00 | 0.00 | 87 | 1014.6 |
| 20260905103005 | 75 | 341 | 3.0 | 7.0 | 0.00 | 0.00 | 0.00 | 88 | 1014.7 |
| 20260905102504 | 75 | 11 | 3.0 | 7.0 | 0.00 | 0.00 | 0.00 | 87 | 1014.7 |
| 20260905102002 | 75 | 360 | 3.0 | 7.0 | 0.00 | 0.00 | 0.00 | 87 | 1014.5 |
| 20260905101514 | 75 | 10 | 4.0 | 6.0 | 0.00 | 0.00 | 0.00 | 87 | 1014.4 |
| 20260905101004 | 75 | 336 | 3.0 | 7.0 | 0.00 | 0.00 | 0.00 | 87 | 1014.5 |
| 20260905100508 | 75 | 342 | 3.0 | 7.0 | 0.00 | 0.00 | 0.00 | 87 | 1014.7 |
| 20260905100015 | 75 | 9 | 3.0 | 7.0 | 0.00 | 0.00 | 0.00 | 87 | 1014.6 |
| 20260905095503 | 75 | 321 | 2.0 | 7.0 | 0.00 | 0.00 | 0.00 | 87 | 1014.5 |
| 20260905095011 | 75 | 346 | 3.0 | 7.0 | 0.00 | 0.00 | 0.00 | 87 | 1014.5 |
| 20260905094512 | 75 | 9 | 3.0 | 7.0 | 0.00 | 0.00 | 0.00 | 87 | 1014.6 |